{"data":{"norad_id":46672,"intl_designator":"2020-073C","name":"STARLINK-1716","alt_names":[],"object_type":"PAYLOAD","status":"ACTIVE","operator":null,"country":"US","launch_date":"2020-10-18","launch_site_code":"AFETR","launch_vehicle":null,"mission":null,"orbit_class":"UNKNOWN","rcs_meters":null,"size_class":null,"mass_kg":null,"dimensions":null,"purposes":["comms"],"wikipedia_slug":null,"has_3d_model":false,"image_url":null,"decayed_at":null,"tle_current":{"epoch":"2026-06-29T01:09:28.209888Z","epoch_age_seconds":7232198,"freshness":"OLD","line1":"1 46672U 20073C   26180.04824317  .10972724  12546-4  29965-3 0  9991","line2":"2 46672  53.0235   1.1662 0010895 287.2317  72.7538 16.44664881315328","mean_motion":16.44664881,"eccentricity":0.0010895,"inclination_deg":53.0235,"raan_deg":1.1662,"arg_perigee_deg":287.2317,"mean_anomaly_deg":72.7538,"bstar":0.00029965,"rev_number":31532,"period_min":87.555830773528,"perigee_km":146.30648499718,"apogee_km":160.53875340742,"semimajor_km":6531.5596192023,"source":"CELESTRAK","updated_at":"2026-06-29T09:01:22.494763Z"}}}